Time,TemperatureF,DewpointF,PressureIn,WindDirection,WindDirectionDegrees,WindSpeedMPH,WindSpeedGustMPH,Humidity,HourlyPrecipIn,Conditions,Clouds,dailyrainin,SoftwareType,DateUTC
2013-09-28 00:00:00,33.8,21.0,29.59,NW,321,0.0,7.0,59,0.00,,,0.04,Wunderground v.1.15,2013-09-28 06:00:00,
2013-09-28 00:05:00,33.9,20.7,29.59,West,267,1.0,7.0,58,0.00,,,0.04,Wunderground v.1.15,2013-09-28 06:05:00,
2013-09-28 00:10:00,34.0,20.8,29.59,North,350,1.0,1.0,58,0.00,,,0.04,Wunderground v.1.15,2013-09-28 06:10:00,
2013-09-28 00:15:00,33.9,20.7,29.59,ENE,69,1.0,7.0,58,0.00,,,0.04,Wunderground v.1.15,2013-09-28 06:15:00,
2013-09-28 00:20:00,33.9,20.3,29.59,NW,325,1.0,7.0,57,0.00,,,0.04,Wunderground v.1.15,2013-09-28 06:20:00,
2013-09-28 00:25:00,34.1,20.0,29.59,NNW,345,2.0,7.0,56,0.00,,,0.04,Wunderground v.1.15,2013-09-28 06:25:00,
2013-09-28 00:40:00,34.1,20.9,29.61,ENE,69,1.0,1.0,58,0.00,,,0.04,Wunderground v.1.15,2013-09-28 06:40:00,
2013-09-28 00:45:00,34.0,20.3,29.61,WNW,298,1.0,7.0,57,0.00,,,0.04,Wunderground v.1.15,2013-09-28 06:45:00,
2013-09-28 00:50:00,34.0,20.8,29.60,West,271,1.0,1.0,58,0.00,,,0.04,Wunderground v.1.15,2013-09-28 06:50:00,
2013-09-28 00:55:00,33.8,20.6,29.61,NNW,329,0.0,7.0,58,0.00,,,0.04,Wunderground v.1.15,2013-09-28 06:55:00,
2013-09-28 01:00:00,33.5,20.3,29.61,NNW,330,0.0,7.0,58,0.00,,,0.04,Wunderground v.1.15,2013-09-28 07:00:00,
2013-09-28 01:05:00,33.4,20.6,29.61,West,269,0.0,7.0,59,0.00,,,0.00,Wunderground v.1.15,2013-09-28 07:05:00,
2013-09-28 01:10:00,33.3,20.9,29.61,North,5,0.0,7.0,60,0.00,,,0.00,Wunderground v.1.15,2013-09-28 07:10:00,
2013-09-28 01:15:00,33.2,21.2,29.62,NNW,340,0.0,7.0,61,0.00,,,0.00,Wunderground v.1.15,2013-09-28 07:15:00,
2013-09-28 01:20:00,33.1,20.7,29.62,NW,317,0.0,7.0,60,0.00,,,0.00,Wunderground v.1.15,2013-09-28 07:20:00,
2013-09-28 01:25:00,33.0,20.6,29.62,NW,318,0.0,7.0,60,0.00,,,0.00,Wunderground v.1.15,2013-09-28 07:25:00,
2013-09-28 01:30:00,32.8,20.8,29.63,NW,318,0.0,7.0,61,0.00,,,0.00,Wunderground v.1.15,2013-09-28 07:30:00,
2013-09-28 01:35:00,32.6,20.6,29.63,NW,318,0.0,7.0,61,0.00,,,0.00,Wunderground v.1.15,2013-09-28 07:35:00,
2013-09-28 01:40:00,32.4,20.4,29.63,NW,318,0.0,7.0,61,0.00,,,0.00,Wunderground v.1.15,2013-09-28 07:40:00,
2013-09-28 01:45:00,32.2,20.2,29.63,NW,318,0.0,7.0,61,0.00,,,0.00,Wunderground v.1.15,2013-09-28 07:45:00,
2013-09-28 01:50:00,32.0,20.4,29.63,NW,318,0.0,7.0,62,0.00,,,0.00,Wunderground v.1.15,2013-09-28 07:50:00,
2013-09-28 01:55:00,31.9,20.7,29.63,NW,315,0.0,7.0,63,0.00,,,0.00,Wunderground v.1.15,2013-09-28 07:55:00,
2013-09-28 02:00:00,31.7,20.2,29.63,NW,315,0.0,7.0,62,0.00,,,0.00,Wunderground v.1.15,2013-09-28 08:00:00,
2013-09-28 02:05:00,31.7,20.2,29.64,NW,311,0.0,7.0,62,0.00,,,0.00,Wunderground v.1.15,2013-09-28 08:05:00,
2013-09-28 02:10:00,31.6,20.1,29.64,NW,311,0.0,7.0,62,0.00,,,0.00,Wunderground v.1.15,2013-09-28 08:10:00,
2013-09-28 02:15:00,31.6,20.1,29.64,North,355,0.0,7.0,62,0.00,,,0.00,Wunderground v.1.15,2013-09-28 08:15:00,
2013-09-28 02:20:00,31.8,19.9,29.64,WSW,241,0.0,7.0,61,0.00,,,0.00,Wunderground v.1.15,2013-09-28 08:20:00,
2013-09-28 02:25:00,32.2,19.5,29.64,WNW,301,1.0,7.0,59,0.00,,,0.00,Wunderground v.1.15,2013-09-28 08:25:00,
2013-09-28 02:30:00,32.5,19.7,29.64,NNW,333,1.0,7.0,59,0.00,,,0.00,Wunderground v.1.15,2013-09-28 08:30:00,
2013-09-28 02:35:00,32.7,19.5,29.65,West,271,1.0,7.0,58,0.00,,,0.00,Wunderground v.1.15,2013-09-28 08:35:00,
2013-09-28 02:40:00,32.8,19.2,29.65,North,349,1.0,7.0,57,0.00,,,0.00,Wunderground v.1.15,2013-09-28 08:40:00,
2013-09-28 02:45:00,33.0,19.4,29.65,NW,306,1.0,7.0,57,0.00,,,0.00,Wunderground v.1.15,2013-09-28 08:45:00,
2013-09-28 02:50:00,33.1,19.1,29.64,NNE,26,1.0,10.0,56,0.00,,,0.00,Wunderground v.1.15,2013-09-28 08:50:00,
2013-09-28 02:55:00,33.2,18.8,29.64,NNW,348,2.0,10.0,55,0.00,,,0.00,Wunderground v.1.15,2013-09-28 08:55:00,
2013-09-28 03:00:00,33.3,18.4,29.64,NNW,336,2.0,7.0,54,0.00,,,0.00,Wunderground v.1.15,2013-09-28 09:00:00,
2013-09-28 03:05:00,33.4,18.1,29.64,NNW,348,2.0,7.0,53,0.00,,,0.00,Wunderground v.1.15,2013-09-28 09:05:00,
2013-09-28 03:10:00,33.4,18.1,29.64,NNW,336,2.0,7.0,53,0.00,,,0.00,Wunderground v.1.15,2013-09-28 09:10:00,
2013-09-28 03:15:00,33.5,18.2,29.65,NNW,346,3.0,7.0,53,0.00,,,0.00,Wunderground v.1.15,2013-09-28 09:15:00,
2013-09-28 03:20:00,33.6,17.8,29.65,NW,321,2.0,2.0,52,0.00,,,0.00,Wunderground v.1.15,2013-09-28 09:20:00,
2013-09-28 03:25:00,33.6,17.4,29.66,NW,308,3.0,3.0,51,0.00,,,0.00,Wunderground v.1.15,2013-09-28 09:25:00,
2013-09-28 03:30:00,33.6,17.4,29.66,North,355,3.0,7.0,51,0.00,,,0.00,Wunderground v.1.15,2013-09-28 09:30:00,
2013-09-28 03:35:00,33.7,16.5,29.66,WNW,296,2.0,7.0,49,0.00,,,0.00,Wunderground v.1.15,2013-09-28 09:35:00,
2013-09-28 03:40:00,33.8,16.6,29.66,NNW,344,3.0,3.0,49,0.00,,,0.00,Wunderground v.1.15,2013-09-28 09:40:00,
2013-09-28 03:50:00,34.0,16.3,29.67,NW,306,2.0,7.0,48,0.00,,,0.00,Wunderground v.1.15,2013-09-28 09:50:00,
2013-09-28 03:55:00,33.9,15.8,29.66,WNW,299,2.0,7.0,47,0.00,,,0.00,Wunderground v.1.15,2013-09-28 09:55:00,
2013-09-28 04:00:00,33.8,15.7,29.67,NNW,342,1.0,1.0,47,0.00,,,0.00,Wunderground v.1.15,2013-09-28 10:00:00,
2013-09-28 04:05:00,33.9,15.3,29.67,West,274,2.0,2.0,46,0.00,,,0.00,Wunderground v.1.15,2013-09-28 10:05:00,
2013-09-28 04:10:00,34.0,15.4,29.68,North,5,2.0,2.0,46,0.00,,,0.00,Wunderground v.1.15,2013-09-28 10:10:00,
2013-09-28 04:15:00,34.1,14.4,29.68,NNW,346,2.0,7.0,44,0.00,,,0.00,Wunderground v.1.15,2013-09-28 10:15:00,
2013-09-28 04:20:00,34.2,14.5,29.68,NNW,335,2.0,7.0,44,0.00,,,0.00,Wunderground v.1.15,2013-09-28 10:20:00,
2013-09-28 04:30:00,34.3,14.6,29.69,NNW,331,2.0,7.0,44,0.00,,,0.00,Wunderground v.1.15,2013-09-28 10:30:00,
2013-09-28 04:40:00,34.3,14.1,29.69,West,275,2.0,7.0,43,0.00,,,0.00,Wunderground v.1.15,2013-09-28 10:40:00,
2013-09-28 04:45:00,34.2,14.5,29.69,North,355,2.0,7.0,44,0.00,,,0.00,Wunderground v.1.15,2013-09-28 10:45:00,
2013-09-28 04:50:00,34.1,13.9,29.70,NNW,332,2.0,2.0,43,0.00,,,0.00,Wunderground v.1.15,2013-09-28 10:50:00,
2013-09-28 05:00:00,34.0,13.8,29.70,NNW,334,1.0,7.0,43,0.00,,,0.00,Wunderground v.1.15,2013-09-28 11:00:00,
2013-09-28 05:05:00,34.0,13.8,29.70,NNW,348,2.0,7.0,43,0.00,,,0.00,Wunderground v.1.15,2013-09-28 11:05:00,
2013-09-28 05:10:00,34.0,13.8,29.70,NW,319,1.0,7.0,43,0.00,,,0.00,Wunderground v.1.15,2013-09-28 11:10:00,
2013-09-28 05:15:00,33.9,14.3,29.70,North,355,1.0,7.0,44,0.00,,,0.00,Wunderground v.1.15,2013-09-28 11:15:00,
2013-09-28 05:20:00,33.9,13.7,29.70,NNW,334,2.0,7.0,43,0.00,,,0.00,Wunderground v.1.15,2013-09-28 11:20:00,
2013-09-28 05:25:00,34.1,13.9,29.70,WNW,290,2.0,7.0,43,0.00,,,0.00,Wunderground v.1.15,2013-09-28 11:25:00,
2013-09-28 05:30:00,34.2,12.9,29.71,North,360,3.0,7.0,41,0.00,,,0.00,Wunderground v.1.15,2013-09-28 11:30:00,
2013-09-28 05:35:00,34.3,13.6,29.71,NNW,330,3.0,7.0,42,0.00,,,0.00,Wunderground v.1.15,2013-09-28 11:35:00,
2013-09-28 05:40:00,34.3,13.0,29.71,NNW,330,2.0,2.0,41,0.00,,,0.00,Wunderground v.1.15,2013-09-28 11:40:00,
2013-09-28 05:45:00,34.3,13.0,29.71,West,279,1.0,7.0,41,0.00,,,0.00,Wunderground v.1.15,2013-09-28 11:45:00,
2013-09-28 05:55:00,34.2,12.9,29.72,NNW,331,1.0,7.0,41,0.00,,,0.00,Wunderground v.1.15,2013-09-28 11:55:00,
2013-09-28 06:00:00,34.3,12.4,29.72,WSW,247,1.0,1.0,40,0.00,,,0.00,Wunderground v.1.15,2013-09-28 12:00:00,
2013-09-28 06:05:00,34.4,13.1,29.72,North,5,1.0,3.0,41,0.00,,,0.00,Wunderground v.1.15,2013-09-28 12:05:00,
2013-09-28 06:10:00,34.5,13.2,29.73,East,88,1.0,7.0,41,0.00,,,0.00,Wunderground v.1.15,2013-09-28 12:10:00,
2013-09-28 06:15:00,34.4,13.1,29.74,SSW,205,1.0,7.0,41,0.00,,,0.00,Wunderground v.1.15,2013-09-28 12:15:00,
2013-09-28 06:20:00,34.0,13.8,29.74,SSW,192,0.0,7.0,43,0.00,,,0.00,Wunderground v.1.15,2013-09-28 12:20:00,
2013-09-28 06:25:00,33.5,13.4,29.75,NNW,340,0.0,7.0,43,0.00,,,0.00,Wunderground v.1.15,2013-09-28 12:25:00,
2013-09-28 06:30:00,33.0,14.4,29.75,SE,144,0.0,7.0,46,0.00,,,0.00,Wunderground v.1.15,2013-09-28 12:30:00,
2013-09-28 06:35:00,32.3,13.3,29.75,SE,132,1.0,7.0,45,0.00,,,0.00,Wunderground v.1.15,2013-09-28 12:35:00,
2013-09-28 06:40:00,32.0,14.5,29.75,SE,132,0.0,7.0,48,0.00,,,0.00,Wunderground v.1.15,2013-09-28 12:40:00,
2013-09-28 06:45:00,31.4,14.9,29.75,SE,132,0.0,7.0,50,0.00,,,0.00,Wunderground v.1.15,2013-09-28 12:45:00,
2013-09-28 06:50:00,31.0,14.5,29.76,SE,132,0.0,7.0,50,0.00,,,0.00,Wunderground v.1.15,2013-09-28 12:50:00,
2013-09-28 06:55:00,30.7,13.8,29.76,SE,132,0.0,7.0,49,0.00,,,0.00,Wunderground v.1.15,2013-09-28 12:55:00,
2013-09-28 07:00:00,30.9,13.5,29.76,SSE,157,0.0,7.0,48,0.00,,,0.00,Wunderground v.1.15,2013-09-28 13:00:00,
2013-09-28 07:05:00,31.5,13.6,29.77,SSE,159,0.0,7.0,47,0.00,,,0.00,Wunderground v.1.15,2013-09-28 13:05:00,
2013-09-28 07:10:00,31.9,14.4,29.77,SSE,159,0.0,7.0,48,0.00,,,0.00,Wunderground v.1.15,2013-09-28 13:10:00,
2013-09-28 07:15:00,31.9,13.9,29.77,SSE,160,0.0,7.0,47,0.00,,,0.00,Wunderground v.1.15,2013-09-28 13:15:00,
2013-09-28 07:20:00,32.3,15.7,29.78,NNE,25,0.0,7.0,50,0.00,,,0.00,Wunderground v.1.15,2013-09-28 13:20:00,
2013-09-28 07:25:00,32.9,14.4,29.79,SSE,158,0.0,7.0,46,0.00,,,0.00,Wunderground v.1.15,2013-09-28 13:25:00,
2013-09-28 07:35:00,33.9,14.3,29.80,WNW,288,0.0,7.0,44,0.00,,,0.00,Wunderground v.1.15,2013-09-28 13:35:00,
2013-09-28 07:40:00,34.3,15.1,29.80,West,271,0.0,7.0,45,0.00,,,0.00,Wunderground v.1.15,2013-09-28 13:40:00,
2013-09-28 07:45:00,34.3,14.1,29.80,West,279,0.0,7.0,43,0.00,,,0.00,Wunderground v.1.15,2013-09-28 13:45:00,
2013-09-28 07:50:00,34.5,14.8,29.81,WSW,238,0.0,7.0,44,0.00,,,0.00,Wunderground v.1.15,2013-09-28 13:50:00,
2013-09-28 07:55:00,34.6,14.9,29.81,NNW,335,0.0,7.0,44,0.00,,,0.00,Wunderground v.1.15,2013-09-28 13:55:00,
2013-09-28 08:00:00,34.8,15.1,29.81,WNW,295,0.0,7.0,44,0.00,,,0.00,Wunderground v.1.15,2013-09-28 14:00:00,
2013-09-28 08:05:00,34.8,15.6,29.81,South,173,0.0,7.0,45,0.00,,,0.00,Wunderground v.1.15,2013-09-28 14:05:00,
2013-09-28 08:10:00,34.9,15.7,29.82,SW,229,0.0,7.0,45,0.00,,,0.00,Wunderground v.1.15,2013-09-28 14:10:00,
2013-09-28 08:15:00,35.1,15.9,29.82,SSW,205,0.0,7.0,45,0.00,,,0.00,Wunderground v.1.15,2013-09-28 14:15:00,
2013-09-28 08:20:00,35.6,15.8,29.82,NNW,336,0.0,7.0,44,0.00,,,0.00,Wunderground v.1.15,2013-09-28 14:20:00,
2013-09-28 08:30:00,37.2,15.1,29.83,West,281,0.0,7.0,40,0.00,,,0.00,Wunderground v.1.15,2013-09-28 14:30:00,
2013-09-28 08:35:00,37.5,15.3,29.83,West,267,0.0,7.0,40,0.00,,,0.00,Wunderground v.1.15,2013-09-28 14:35:00,
2013-09-28 08:40:00,37.8,15.6,29.84,South,178,0.0,7.0,40,0.00,,,0.00,Wunderground v.1.15,2013-09-28 14:40:00,
2013-09-28 08:45:00,38.1,15.3,29.84,South,174,0.0,7.0,39,0.00,,,0.00,Wunderground v.1.15,2013-09-28 14:45:00,
2013-09-28 08:50:00,38.7,17.0,29.84,South,176,0.0,7.0,41,0.00,,,0.00,Wunderground v.1.15,2013-09-28 14:50:00,
2013-09-28 08:55:00,39.3,16.4,29.84,SW,219,0.0,7.0,39,0.00,,,0.00,Wunderground v.1.15,2013-09-28 14:55:00,
2013-09-28 09:00:00,39.7,16.7,29.85,SSE,164,1.0,1.0,39,0.00,,,0.00,Wunderground v.1.15,2013-09-28 15:00:00,
2013-09-28 09:05:00,40.1,17.1,29.85,SSE,149,0.0,7.0,39,0.00,,,0.00,Wunderground v.1.15,2013-09-28 15:05:00,
2013-09-28 09:10:00,40.4,16.8,29.85,WNW,292,1.0,1.0,38,0.00,,,0.00,Wunderground v.1.15,2013-09-28 15:10:00,
2013-09-28 09:15:00,40.9,17.2,29.85,WNW,286,0.0,7.0,38,0.00,,,0.00,Wunderground v.1.15,2013-09-28 15:15:00,
2013-09-28 09:20:00,41.3,16.9,29.85,SSE,151,0.0,7.0,37,0.00,,,0.00,Wunderground v.1.15,2013-09-28 15:20:00,
2013-09-28 09:25:00,41.5,16.5,29.86,SW,221,1.0,7.0,36,0.00,,,0.00,Wunderground v.1.15,2013-09-28 15:25:00,
2013-09-28 09:30:00,41.7,16.7,29.86,South,190,0.0,7.0,36,0.00,,,0.00,Wunderground v.1.15,2013-09-28 15:30:00,
2013-09-28 09:35:00,41.9,18.1,29.86,South,178,0.0,7.0,38,0.00,,,0.00,Wunderground v.1.15,2013-09-28 15:35:00,
2013-09-28 09:40:00,42.2,17.1,29.86,SSE,153,1.0,1.0,36,0.00,,,0.00,Wunderground v.1.15,2013-09-28 15:40:00,
2013-09-28 09:45:00,42.6,17.5,29.86,SSE,153,0.0,7.0,36,0.00,,,0.00,Wunderground v.1.15,2013-09-28 15:45:00,
2013-09-28 09:50:00,43.0,16.5,29.87,WSW,249,0.0,7.0,34,0.00,,,0.00,Wunderground v.1.15,2013-09-28 15:50:00,
2013-09-28 09:55:00,43.1,17.3,29.87,North,355,0.0,7.0,35,0.00,,,0.00,Wunderground v.1.15,2013-09-28 15:55:00,
2013-09-28 10:00:00,42.9,18.4,29.87,NNE,19,0.0,7.0,37,0.00,,,0.00,Wunderground v.1.15,2013-09-28 16:00:00,
2013-09-28 10:05:00,43.4,18.2,29.87,North,5,0.0,7.0,36,0.00,,,0.00,Wunderground v.1.15,2013-09-28 16:05:00,
2013-09-28 10:10:00,43.7,18.5,29.88,SW,236,0.0,7.0,36,0.00,,,0.00,Wunderground v.1.15,2013-09-28 16:10:00,
2013-09-28 10:15:00,44.0,18.1,29.88,NW,318,0.0,7.0,35,0.00,,,0.00,Wunderground v.1.15,2013-09-28 16:15:00,
2013-09-28 10:20:00,43.8,18.5,29.88,WNW,303,0.0,7.0,36,0.00,,,0.00,Wunderground v.1.15,2013-09-28 16:20:00,
2013-09-28 10:25:00,44.3,18.3,29.88,South,188,0.0,7.0,35,0.00,,,0.00,Wunderground v.1.15,2013-09-28 16:25:00,
2013-09-28 10:30:00,45.0,18.3,29.88,WNW,290,0.0,7.0,34,0.00,,,0.00,Wunderground v.1.15,2013-09-28 16:30:00,
2013-09-28 10:35:00,45.5,18.7,29.88,SSW,196,0.0,7.0,34,0.00,,,0.00,Wunderground v.1.15,2013-09-28 16:35:00,
2013-09-28 10:40:00,46.0,18.5,29.88,North,360,1.0,7.0,33,0.00,,,0.00,Wunderground v.1.15,2013-09-28 16:40:00,
2013-09-28 10:45:00,46.0,18.5,29.88,SSW,213,1.0,7.0,33,0.00,,,0.00,Wunderground v.1.15,2013-09-28 16:45:00,
2013-09-28 10:50:00,46.3,19.4,29.88,WSW,249,0.0,7.0,34,0.00,,,0.00,Wunderground v.1.15,2013-09-28 16:50:00,
2013-09-28 10:55:00,46.7,17.6,29.88,NNW,335,0.0,7.0,31,0.00,,,0.00,Wunderground v.1.15,2013-09-28 16:55:00,
2013-09-28 11:00:00,47.0,18.6,29.88,North,355,1.0,7.0,32,0.00,,,0.00,Wunderground v.1.15,2013-09-28 17:00:00,
2013-09-28 11:05:00,46.9,18.5,29.87,NW,323,1.0,7.0,32,0.00,,,0.00,Wunderground v.1.15,2013-09-28 17:05:00,
2013-09-28 11:10:00,47.4,19.7,29.87,SSE,162,1.0,1.0,33,0.00,,,0.00,Wunderground v.1.15,2013-09-28 17:10:00,
2013-09-28 11:15:00,48.1,19.6,29.87,South,189,0.0,7.0,32,0.00,,,0.00,Wunderground v.1.15,2013-09-28 17:15:00,
2013-09-28 11:20:00,48.8,19.5,29.87,WSW,252,0.0,7.0,31,0.00,,,0.00,Wunderground v.1.15,2013-09-28 17:20:00,
2013-09-28 11:25:00,49.3,19.9,29.87,NNW,341,1.0,7.0,31,0.00,,,0.00,Wunderground v.1.15,2013-09-28 17:25:00,
2013-09-28 11:30:00,49.4,20.7,29.88,West,278,1.0,1.0,32,0.00,,,0.00,Wunderground v.1.15,2013-09-28 17:30:00,
2013-09-28 11:35:00,49.9,18.9,29.88,NNW,327,0.0,2.0,29,0.00,,,0.00,Wunderground v.1.15,2013-09-28 17:35:00,
2013-09-28 11:40:00,50.0,18.1,29.88,NNW,345,0.0,7.0,28,0.00,,,0.00,Wunderground v.1.15,2013-09-28 17:40:00,
2013-09-28 11:45:00,50.3,18.4,29.88,NNW,344,0.0,7.0,28,0.00,,,0.00,Wunderground v.1.15,2013-09-28 17:45:00,
2013-09-28 11:50:00,51.0,20.6,29.88,SSW,209,0.0,7.0,30,0.00,,,0.00,Wunderground v.1.15,2013-09-28 17:50:00,
2013-09-28 11:55:00,51.8,22.1,29.88,SSW,192,0.0,7.0,31,0.00,,,0.00,Wunderground v.1.15,2013-09-28 17:55:00,
2013-09-28 12:00:00,52.6,19.5,29.87,NW,324,0.0,7.0,27,0.00,,,0.00,Wunderground v.1.15,2013-09-28 18:00:00,
2013-09-28 12:05:00,52.8,18.8,29.87,NNW,329,0.0,7.0,26,0.00,,,0.00,Wunderground v.1.15,2013-09-28 18:05:00,
2013-09-28 12:10:00,53.0,19.9,29.87,SW,236,0.0,7.0,27,0.00,,,0.00,Wunderground v.1.15,2013-09-28 18:10:00,
2013-09-28 12:15:00,53.4,21.1,29.87,SSW,196,0.0,7.0,28,0.00,,,0.00,Wunderground v.1.15,2013-09-28 18:15:00,
2013-09-28 12:20:00,53.9,19.8,29.87,SSE,153,0.0,7.0,26,0.00,,,0.00,Wunderground v.1.15,2013-09-28 18:20:00,
2013-09-28 12:30:00,54.1,21.7,29.87,SE,142,1.0,1.0,28,0.00,,,0.00,Wunderground v.1.15,2013-09-28 18:30:00,
2013-09-28 12:35:00,54.5,21.2,29.87,SSW,194,1.0,7.0,27,0.00,,,0.00,Wunderground v.1.15,2013-09-28 18:35:00,
2013-09-28 12:40:00,54.5,23.7,29.87,SSW,211,0.0,7.0,30,0.00,,,0.00,Wunderground v.1.15,2013-09-28 18:40:00,
2013-09-28 12:45:00,54.9,21.5,29.87,East,96,0.0,7.0,27,0.00,,,0.00,Wunderground v.1.15,2013-09-28 18:45:00,
2013-09-28 12:50:00,55.3,21.8,29.87,ENE,74,0.0,7.0,27,0.00,,,0.00,Wunderground v.1.15,2013-09-28 18:50:00,
2013-09-28 12:55:00,55.6,23.0,29.86,SSE,167,0.0,7.0,28,0.00,,,0.00,Wunderground v.1.15,2013-09-28 18:55:00,
2013-09-28 13:00:00,55.9,23.2,29.86,SSE,153,1.0,7.0,28,0.00,,,0.00,Wunderground v.1.15,2013-09-28 19:00:00,
2013-09-28 13:05:00,56.1,22.5,29.86,NW,315,1.0,7.0,27,0.00,,,0.00,Wunderground v.1.15,2013-09-28 19:05:00,
2013-09-28 13:10:00,56.2,23.5,29.86,West,267,1.0,1.0,28,0.00,,,0.00,Wunderground v.1.15,2013-09-28 19:10:00,
2013-09-28 13:20:00,56.9,22.3,29.86,South,170,0.0,7.0,26,0.00,,,0.00,Wunderground v.1.15,2013-09-28 19:20:00,
2013-09-28 13:25:00,57.2,23.5,29.86,NW,315,0.0,7.0,27,0.00,,,0.00,Wunderground v.1.15,2013-09-28 19:25:00,
2013-09-28 13:30:00,57.3,21.7,29.86,WSW,254,1.0,1.0,25,0.00,,,0.00,Wunderground v.1.15,2013-09-28 19:30:00,
2013-09-28 13:40:00,56.7,23.0,29.86,WNW,284,1.0,1.0,27,0.00,,,0.00,Wunderground v.1.15,2013-09-28 19:40:00,
2013-09-28 13:50:00,57.3,22.7,29.85,NNW,342,1.0,7.0,26,0.00,,,0.00,Wunderground v.1.15,2013-09-28 19:50:00,
2013-09-28 13:55:00,57.3,21.7,29.86,North,349,1.0,7.0,25,0.00,,,0.00,Wunderground v.1.15,2013-09-28 19:55:00,
2013-09-28 14:00:00,57.5,21.9,29.86,WNW,293,1.0,1.0,25,0.00,,,0.00,Wunderground v.1.15,2013-09-28 20:00:00,
2013-09-28 14:05:00,57.7,21.1,29.85,North,355,1.0,2.0,24,0.00,,,0.00,Wunderground v.1.15,2013-09-28 20:05:00,
2013-09-28 14:10:00,57.6,22.0,29.85,SSW,207,1.0,1.0,25,0.00,,,0.00,Wunderground v.1.15,2013-09-28 20:10:00,
2013-09-28 14:15:00,58.1,22.4,29.85,NNW,336,1.0,2.0,25,0.00,,,0.00,Wunderground v.1.15,2013-09-28 20:15:00,
2013-09-28 14:20:00,58.3,21.6,29.85,NNW,340,1.0,7.0,24,0.00,,,0.00,Wunderground v.1.15,2013-09-28 20:20:00,
2013-09-28 14:25:00,58.5,21.8,29.85,WNW,297,1.0,7.0,24,0.00,,,0.00,Wunderground v.1.15,2013-09-28 20:25:00,
2013-09-28 14:30:00,58.8,22.0,29.85,WNW,288,0.0,7.0,24,0.00,,,0.00,Wunderground v.1.15,2013-09-28 20:30:00,
2013-09-28 14:35:00,58.8,22.0,29.85,NE,34,1.0,7.0,24,0.00,,,0.00,Wunderground v.1.15,2013-09-28 20:35:00,
2013-09-28 14:40:00,59.2,21.4,29.85,WNW,294,1.0,7.0,23,0.00,,,0.00,Wunderground v.1.15,2013-09-28 20:40:00,
2013-09-28 14:50:00,59.7,18.5,29.85,WSW,242,1.0,7.0,20,0.00,,,0.00,Wunderground v.1.15,2013-09-28 20:50:00,
2013-09-28 14:55:00,59.7,18.5,29.85,WNW,288,1.0,7.0,20,0.00,,,0.00,Wunderground v.1.15,2013-09-28 20:55:00,
2013-09-28 15:00:00,59.7,18.5,29.84,South,182,1.0,1.0,20,0.00,,,0.00,Wunderground v.1.15,2013-09-28 21:00:00,
2013-09-28 15:05:00,60.1,17.6,29.85,West,268,1.0,7.0,19,0.00,,,0.00,Wunderground v.1.15,2013-09-28 21:05:00,
2013-09-28 15:15:00,60.8,18.2,29.84,SW,221,0.0,7.0,19,0.00,,,0.00,Wunderground v.1.15,2013-09-28 21:15:00,
2013-09-28 15:20:00,60.7,16.9,29.85,North,360,0.0,7.0,18,0.00,,,0.00,Wunderground v.1.15,2013-09-28 21:20:00,
2013-09-28 15:25:00,60.6,16.8,29.85,NW,309,1.0,7.0,18,0.00,,,0.00,Wunderground v.1.15,2013-09-28 21:25:00,
2013-09-28 15:30:00,60.5,16.7,29.85,NNW,338,1.0,7.0,18,0.00,,,0.00,Wunderground v.1.15,2013-09-28 21:30:00,
2013-09-28 15:35:00,60.2,17.7,29.85,South,183,1.0,7.0,19,0.00,,,0.00,Wunderground v.1.15,2013-09-28 21:35:00,
2013-09-28 15:40:00,60.4,16.6,29.85,NNE,20,1.0,1.0,18,0.00,,,0.00,Wunderground v.1.15,2013-09-28 21:40:00,
2013-09-28 15:50:00,60.7,16.9,29.85,NW,322,0.0,7.0,18,0.00,,,0.00,Wunderground v.1.15,2013-09-28 21:50:00,
2013-09-28 15:55:00,60.9,15.7,29.85,North,360,1.0,7.0,17,0.00,,,0.00,Wunderground v.1.15,2013-09-28 21:55:00,
2013-09-28 16:00:00,60.5,15.4,29.85,NW,319,1.0,7.0,17,0.00,,,0.00,Wunderground v.1.15,2013-09-28 22:00:00,
2013-09-28 16:05:00,60.5,15.4,29.85,NNW,348,2.0,7.0,17,0.00,,,0.00,Wunderground v.1.15,2013-09-28 22:05:00,
2013-09-28 16:10:00,60.3,16.6,29.85,NNW,345,1.0,1.0,18,0.00,,,0.00,Wunderground v.1.15,2013-09-28 22:10:00,
2013-09-28 16:15:00,60.2,16.5,29.85,North,360,1.0,7.0,18,0.00,,,0.00,Wunderground v.1.15,2013-09-28 22:15:00,
2013-09-28 16:20:00,60.1,16.4,29.85,SE,132,1.0,1.0,18,0.00,,,0.00,Wunderground v.1.15,2013-09-28 22:20:00,
2013-09-28 16:25:00,60.2,18.9,29.84,SSW,194,0.0,7.0,20,0.00,,,0.00,Wunderground v.1.15,2013-09-28 22:25:00,
2013-09-28 16:30:00,60.3,15.2,29.84,SSE,165,0.0,7.0,17,0.00,,,0.00,Wunderground v.1.15,2013-09-28 22:30:00,
2013-09-28 16:35:00,60.3,16.6,29.84,SSE,156,0.0,7.0,18,0.00,,,0.00,Wunderground v.1.15,2013-09-28 22:35:00,
2013-09-28 16:40:00,59.8,14.8,29.84,NW,322,1.0,1.0,17,0.00,,,0.00,Wunderground v.1.15,2013-09-28 22:40:00,
2013-09-28 16:45:00,59.0,12.8,29.85,North,5,1.0,7.0,16,0.00,,,0.00,Wunderground v.1.15,2013-09-28 22:45:00,
2013-09-28 16:50:00,58.4,15.0,29.85,North,9,1.0,7.0,18,0.00,,,0.00,Wunderground v.1.15,2013-09-28 22:50:00,
2013-09-28 16:55:00,58.0,14.7,29.85,North,349,1.0,7.0,18,0.00,,,0.00,Wunderground v.1.15,2013-09-28 22:55:00,
2013-09-28 17:00:00,57.8,15.7,29.84,North,5,1.0,7.0,19,0.00,,,0.00,Wunderground v.1.15,2013-09-28 23:00:00,
2013-09-28 17:10:00,57.1,13.9,29.85,WSW,246,2.0,7.0,18,0.00,,,0.00,Wunderground v.1.15,2013-09-28 23:10:00,
2013-09-28 17:20:00,56.3,15.7,29.85,NNW,332,1.0,1.0,20,0.00,,,0.00,Wunderground v.1.15,2013-09-28 23:20:00,
2013-09-28 17:25:00,56.0,15.4,29.85,North,360,1.0,3.0,20,0.00,,,0.00,Wunderground v.1.15,2013-09-28 23:25:00,
2013-09-28 17:30:00,55.7,16.3,29.85,NNW,328,1.0,1.0,21,0.00,,,0.00,Wunderground v.1.15,2013-09-28 23:30:00,
2013-09-28 17:35:00,55.5,15.0,29.85,NW,315,1.0,7.0,20,0.00,,,0.00,Wunderground v.1.15,2013-09-28 23:35:00,
2013-09-28 17:40:00,55.3,16.0,29.85,North,349,2.0,2.0,21,0.00,,,0.00,Wunderground v.1.15,2013-09-28 23:40:00,
2013-09-28 17:45:00,55.1,16.9,29.85,WNW,300,1.0,7.0,22,0.00,,,0.00,Wunderground v.1.15,2013-09-28 23:45:00,
2013-09-28 17:50:00,54.8,16.6,29.85,NNW,344,1.0,1.0,22,0.00,,,0.00,Wunderground v.1.15,2013-09-28 23:50:00,
2013-09-28 17:55:00,54.5,15.3,29.85,NW,323,1.0,7.0,21,0.00,,,0.00,Wunderground v.1.15,2013-09-28 23:55:00,
2013-09-28 18:00:00,54.2,17.1,29.85,NNW,336,0.0,7.0,23,0.00,,,0.00,Wunderground v.1.15,2013-09-29 00:00:00,
2013-09-28 18:05:00,54.0,16.0,29.85,NNW,336,0.0,7.0,22,0.00,,,0.00,Wunderground v.1.15,2013-09-29 00:05:00,
2013-09-28 18:10:00,53.8,18.7,29.85,NW,326,0.0,7.0,25,0.00,,,0.00,Wunderground v.1.15,2013-09-29 00:10:00,
2013-09-28 18:20:00,53.2,18.2,29.85,NW,323,0.0,7.0,25,0.00,,,0.00,Wunderground v.1.15,2013-09-29 00:20:00,
2013-09-28 18:25:00,52.8,17.9,29.85,NNW,338,0.0,7.0,25,0.00,,,0.00,Wunderground v.1.15,2013-09-29 00:25:00,
2013-09-28 18:30:00,52.6,17.7,29.85,NNW,337,0.0,7.0,25,0.00,,,0.00,Wunderground v.1.15,2013-09-29 00:30:00,
2013-09-28 18:35:00,52.2,19.2,29.85,NNW,332,0.0,7.0,27,0.00,,,0.00,Wunderground v.1.15,2013-09-29 00:35:00,
2013-09-28 18:45:00,50.9,20.5,29.85,NNW,332,0.0,7.0,30,0.00,,,0.00,Wunderground v.1.15,2013-09-29 00:45:00,
2013-09-28 18:50:00,49.9,21.9,29.85,NNW,332,0.0,7.0,33,0.00,,,0.00,Wunderground v.1.15,2013-09-29 00:50:00,
2013-09-28 18:55:00,48.6,22.1,29.85,NNW,332,0.0,7.0,35,0.00,,,0.00,Wunderground v.1.15,2013-09-29 00:55:00,
2013-09-28 19:00:00,47.5,22.5,29.85,NNW,332,0.0,7.0,37,0.00,,,0.00,Wunderground v.1.15,2013-09-29 01:00:00,
2013-09-28 19:05:00,46.4,22.8,29.86,NNW,332,0.0,7.0,39,0.00,,,0.00,Wunderground v.1.15,2013-09-29 01:05:00,
2013-09-28 19:10:00,45.2,23.4,29.85,NNW,332,0.0,7.0,42,0.00,,,0.00,Wunderground v.1.15,2013-09-29 01:10:00,
2013-09-28 19:15:00,44.2,23.6,29.86,NNW,332,0.0,7.0,44,0.00,,,0.00,Wunderground v.1.15,2013-09-29 01:15:00,
2013-09-28 19:20:00,43.2,24.3,29.85,NNW,332,0.0,7.0,47,0.00,,,0.00,Wunderground v.1.15,2013-09-29 01:20:00,
2013-09-28 19:25:00,42.2,24.4,29.86,NNW,332,0.0,7.0,49,0.00,,,0.00,Wunderground v.1.15,2013-09-29 01:25:00,
2013-09-28 19:30:00,41.3,24.0,29.86,NNW,332,0.0,7.0,50,0.00,,,0.00,Wunderground v.1.15,2013-09-29 01:30:00,
2013-09-28 19:35:00,40.6,23.9,29.86,NNW,332,0.0,7.0,51,0.00,,,0.00,Wunderground v.1.15,2013-09-29 01:35:00,
2013-09-28 19:40:00,40.2,22.1,29.86,NNW,332,0.0,7.0,48,0.00,,,0.00,Wunderground v.1.15,2013-09-29 01:40:00,
2013-09-28 19:50:00,39.5,24.2,29.86,NNW,332,0.0,7.0,54,0.00,,,0.00,Wunderground v.1.15,2013-09-29 01:50:00,
2013-09-28 19:55:00,39.2,23.9,29.87,NNW,332,0.0,7.0,54,0.00,,,0.00,Wunderground v.1.15,2013-09-29 01:55:00,
2013-09-28 20:00:00,38.9,24.1,29.87,NNW,332,0.0,7.0,55,0.00,,,0.00,Wunderground v.1.15,2013-09-29 02:00:00,
2013-09-28 20:05:00,38.7,23.5,29.87,NNW,332,0.0,7.0,54,0.00,,,0.00,Wunderground v.1.15,2013-09-29 02:05:00,
2013-09-28 20:10:00,38.5,24.1,29.87,NNW,332,0.0,7.0,56,0.00,,,0.00,Wunderground v.1.15,2013-09-29 02:10:00,
2013-09-28 20:15:00,38.3,24.0,29.87,NNW,332,0.0,7.0,56,0.00,,,0.00,Wunderground v.1.15,2013-09-29 02:15:00,
2013-09-28 20:25:00,37.9,23.2,29.87,NNW,332,0.0,7.0,55,0.00,,,0.00,Wunderground v.1.15,2013-09-29 02:25:00,
2013-09-28 20:30:00,37.8,23.5,29.87,NNW,332,0.0,7.0,56,0.00,,,0.00,Wunderground v.1.15,2013-09-29 02:30:00,
2013-09-28 20:35:00,37.6,22.0,29.87,NNW,332,0.0,7.0,53,0.00,,,0.00,Wunderground v.1.15,2013-09-29 02:35:00,
2013-09-28 20:40:00,37.8,24.3,29.88,NNW,332,0.0,7.0,58,0.00,,,0.00,Wunderground v.1.15,2013-09-29 02:40:00,
2013-09-28 20:45:00,37.5,23.6,29.88,NNW,332,0.0,7.0,57,0.00,,,0.00,Wunderground v.1.15,2013-09-29 02:45:00,
2013-09-28 20:50:00,37.1,23.7,29.88,NNW,332,0.0,7.0,58,0.00,,,0.00,Wunderground v.1.15,2013-09-29 02:50:00,
2013-09-28 20:55:00,36.7,22.5,29.88,NNW,332,0.0,7.0,56,0.00,,,0.00,Wunderground v.1.15,2013-09-29 02:55:00,
2013-09-28 21:05:00,36.2,22.0,29.88,NNW,332,0.0,7.0,56,0.00,,,0.00,Wunderground v.1.15,2013-09-29 03:05:00,
2013-09-28 21:10:00,36.1,21.5,29.88,NNW,332,0.0,7.0,55,0.00,,,0.00,Wunderground v.1.15,2013-09-29 03:10:00,
2013-09-28 21:15:00,36.1,21.9,29.88,NNW,332,0.0,7.0,56,0.00,,,0.00,Wunderground v.1.15,2013-09-29 03:15:00,
2013-09-28 21:20:00,35.9,20.4,29.89,NNW,332,0.0,7.0,53,0.00,,,0.00,Wunderground v.1.15,2013-09-29 03:20:00,
2013-09-28 21:30:00,35.8,20.3,29.88,NNW,332,0.0,7.0,53,0.00,,,0.00,Wunderground v.1.15,2013-09-29 03:30:00,
2013-09-28 21:35:00,36.0,22.2,29.88,NNW,332,0.0,7.0,57,0.00,,,0.00,Wunderground v.1.15,2013-09-29 03:35:00,
2013-09-28 21:40:00,35.9,20.0,29.88,NNW,332,0.0,7.0,52,0.00,,,0.00,Wunderground v.1.15,2013-09-29 03:40:00,
2013-09-28 21:45:00,36.3,20.8,29.88,NNW,332,0.0,7.0,53,0.00,,,0.00,Wunderground v.1.15,2013-09-29 03:45:00,
2013-09-28 21:50:00,37.2,20.2,29.88,NNW,332,0.0,7.0,50,0.00,,,0.00,Wunderground v.1.15,2013-09-29 03:50:00,
2013-09-28 21:55:00,37.9,20.4,29.88,NNW,332,0.0,7.0,49,0.00,,,0.00,Wunderground v.1.15,2013-09-29 03:55:00,
2013-09-28 22:00:00,38.7,20.2,29.88,NNW,332,0.0,7.0,47,0.00,,,0.00,Wunderground v.1.15,2013-09-29 04:00:00,
2013-09-28 22:05:00,39.0,19.9,29.88,NNW,332,0.0,7.0,46,0.00,,,0.00,Wunderground v.1.15,2013-09-29 04:05:00,
2013-09-28 22:10:00,39.5,19.4,29.87,NNW,332,0.0,7.0,44,0.00,,,0.00,Wunderground v.1.15,2013-09-29 04:10:00,
2013-09-28 22:15:00,39.9,18.6,29.87,NNW,332,0.0,7.0,42,0.00,,,0.00,Wunderground v.1.15,2013-09-29 04:15:00,
2013-09-28 22:20:00,40.6,18.7,29.87,NNW,332,0.0,7.0,41,0.00,,,0.00,Wunderground v.1.15,2013-09-29 04:20:00,
2013-09-28 22:25:00,41.1,18.6,29.87,NNW,332,0.0,7.0,40,0.00,,,0.00,Wunderground v.1.15,2013-09-29 04:25:00,
2013-09-28 22:30:00,41.6,19.0,29.87,NNW,332,0.0,7.0,40,0.00,,,0.00,Wunderground v.1.15,2013-09-29 04:30:00,
2013-09-28 22:35:00,41.8,18.6,29.87,NNW,332,0.0,7.0,39,0.00,,,0.00,Wunderground v.1.15,2013-09-29 04:35:00,
2013-09-28 22:40:00,42.0,19.4,29.87,NNW,332,0.0,7.0,40,0.00,,,0.00,Wunderground v.1.15,2013-09-29 04:40:00,
2013-09-28 22:45:00,42.0,18.8,29.86,NNW,332,0.0,7.0,39,0.00,,,0.00,Wunderground v.1.15,2013-09-29 04:45:00,
2013-09-28 22:50:00,41.6,19.6,29.86,NNW,332,0.0,7.0,41,0.00,,,0.00,Wunderground v.1.15,2013-09-29 04:50:00,
2013-09-28 22:55:00,41.0,20.7,29.86,NNW,332,0.0,7.0,44,0.00,,,0.00,Wunderground v.1.15,2013-09-29 04:55:00,
2013-09-28 23:00:00,40.4,22.2,29.86,NNW,332,0.0,7.0,48,0.00,,,0.00,Wunderground v.1.15,2013-09-29 05:00:00,
2013-09-28 23:05:00,39.4,22.8,29.86,NNW,332,0.0,7.0,51,0.00,,,0.00,Wunderground v.1.15,2013-09-29 05:05:00,
2013-09-28 23:10:00,38.7,21.6,29.86,NNW,332,0.0,7.0,50,0.00,,,0.00,Wunderground v.1.15,2013-09-29 05:10:00,
2013-09-28 23:15:00,38.1,22.0,29.87,NNW,332,0.0,7.0,52,0.00,,,0.00,Wunderground v.1.15,2013-09-29 05:15:00,
2013-09-28 23:20:00,37.6,22.4,29.87,NNW,332,0.0,7.0,54,0.00,,,0.00,Wunderground v.1.15,2013-09-29 05:20:00,
2013-09-28 23:30:00,36.6,22.4,29.86,NNW,332,0.0,7.0,56,0.00,,,0.00,Wunderground v.1.15,2013-09-29 05:30:00,
2013-09-28 23:35:00,36.1,21.5,29.86,NNW,332,0.0,7.0,55,0.00,,,0.00,Wunderground v.1.15,2013-09-29 05:35:00,
2013-09-28 23:40:00,35.7,21.1,29.86,NNW,332,0.0,7.0,55,0.00,,,0.00,Wunderground v.1.15,2013-09-29 05:40:00,
2013-09-28 23:45:00,35.5,21.3,29.86,NNW,332,0.0,7.0,56,0.00,,,0.00,Wunderground v.1.15,2013-09-29 05:45:00,
2013-09-28 23:50:00,35.3,21.2,29.86,NNW,332,0.0,7.0,56,0.00,,,0.00,Wunderground v.1.15,2013-09-29 05:50:00,
2013-09-28 23:55:00,35.2,21.1,29.86,NNW,332,0.0,7.0,56,0.00,,,0.00,Wunderground v.1.15,2013-09-29 05:55:00,